User: anonymous   Login
Location: Laguna de la Cañada del Gallo
(40.3974°N, 5.2096°W)
Time: 04:37:48
(UTC+00:00)
Language:

CZ-4C R/B - Orbit

View from above orbital plane
View from above orbital plane
View from above satellite
View from above satellite

Ground track
Ground track

The orbit data is extracted from the following two-line orbital elements,

1 39211U 13037D   24174.55883841  .00006020  00000-0  26933-3 0  9994
2 39211  98.0355  35.3929 0097051 284.6532  74.3956 15.17529011600238
Epoch (UTC): 22 June 2024 13:24:43
Eccentricity: 0.0097051
inclination: 98.0355°
perigee height: 446 km
apogee height: 580 km
right ascension of ascending node: 35.3929°
argument of perigee: 284.6532°
revolutions per day: 15.17529011
mean anomaly at epoch: 74.3956°
orbit number at epoch: 60023

The dashed part of the orbit path shows where the satellite is in the earth's shadow,  

DLR